Time,TemperatureF,DewpointF,PressureIn,WindDirection,WindDirectionDegrees,WindSpeedMPH,WindSpeedGustMPH,Humidity,HourlyPrecipIn,Conditions,Clouds,dailyrainin,SoftwareType,DateUTC
2013-04-06 00:02:00,45.0,-99.9,-100.00,East,99,13.0,16.0,-999,0.00,,,0.00,,2013-04-06 05:02:00,
2013-04-06 00:14:00,45.0,-99.9,-100.00,East,99,13.0,16.0,-999,0.00,,,0.00,,2013-04-06 05:14:00,
2013-04-06 00:23:00,45.0,-99.9,-100.00,East,99,13.0,16.0,-999,0.00,,,0.00,,2013-04-06 05:23:00,
2013-04-06 00:33:00,44.0,-99.9,-100.00,East,98,12.0,15.0,-999,0.00,,,0.00,,2013-04-06 05:33:00,
2013-04-06 00:43:00,44.0,-99.9,-100.00,East,98,12.0,15.0,-999,0.00,,,0.00,,2013-04-06 05:43:00,
2013-04-06 00:53:00,44.0,-99.9,-100.00,East,98,12.0,15.0,-999,0.00,,,0.00,,2013-04-06 05:53:00,
2013-04-06 01:03:00,44.0,-99.9,-100.00,East,97,12.0,17.0,-999,0.00,,,0.00,,2013-04-06 06:03:00,
2013-04-06 01:13:00,44.0,-99.9,-100.00,East,97,12.0,17.0,-999,0.00,,,0.00,,2013-04-06 06:13:00,
2013-04-06 01:23:00,44.0,-99.9,-100.00,East,97,12.0,17.0,-999,0.00,,,0.00,,2013-04-06 06:23:00,
2013-04-06 01:33:00,43.0,-99.9,-100.00,East,101,10.0,14.0,-999,0.00,,,0.00,,2013-04-06 06:33:00,
2013-04-06 01:43:00,43.0,-99.9,-100.00,East,101,10.0,14.0,-999,0.00,,,0.00,,2013-04-06 06:43:00,
2013-04-06 01:53:00,43.0,-99.9,-100.00,East,101,10.0,14.0,-999,0.00,,,0.00,,2013-04-06 06:53:00,
2013-04-06 02:12:00,43.0,-99.9,-100.00,East,94,11.0,14.0,-999,0.00,,,0.00,,2013-04-06 07:12:00,
2013-04-06 02:23:00,43.0,-99.9,-100.00,East,94,11.0,14.0,-999,0.00,,,0.00,,2013-04-06 07:23:00,
2013-04-06 02:35:00,42.0,-99.9,-100.00,East,96,11.0,14.0,-999,0.00,,,0.00,,2013-04-06 07:35:00,
2013-04-06 02:45:00,42.0,-99.9,-100.00,East,96,11.0,14.0,-999,0.00,,,0.00,,2013-04-06 07:45:00,
2013-04-06 02:53:00,42.0,-99.9,-100.00,East,96,11.0,14.0,-999,0.00,,,0.00,,2013-04-06 07:53:00,
2013-04-06 03:02:00,42.0,-99.9,-100.00,ESE,107,11.0,13.0,-999,0.00,,,0.00,,2013-04-06 08:02:00,
2013-04-06 03:13:00,42.0,-99.9,-100.00,ESE,107,11.0,13.0,-999,0.00,,,0.00,,2013-04-06 08:13:00,
2013-04-06 03:22:00,42.0,-99.9,-100.00,ESE,107,11.0,13.0,-999,0.00,,,0.00,,2013-04-06 08:22:00,
2013-04-06 03:32:00,41.0,-99.9,-100.00,ESE,106,12.0,17.0,-999,0.00,,,0.00,,2013-04-06 08:32:00,
2013-04-06 03:43:00,41.0,-99.9,-100.00,ESE,106,12.0,17.0,-999,0.00,,,0.00,,2013-04-06 08:43:00,
2013-04-06 03:52:00,41.0,-99.9,-100.00,ESE,106,12.0,17.0,-999,0.00,,,0.00,,2013-04-06 08:52:00,
2013-04-06 04:02:00,41.0,-99.9,-100.00,East,97,9.0,12.0,-999,0.00,,,0.00,,2013-04-06 09:02:00,
2013-04-06 04:13:00,41.0,-99.9,-100.00,East,97,9.0,12.0,-999,0.00,,,0.00,,2013-04-06 09:13:00,
2013-04-06 04:22:00,41.0,-99.9,-100.00,East,97,9.0,12.0,-999,0.00,,,0.00,,2013-04-06 09:22:00,
2013-04-06 04:33:00,41.0,-99.9,-100.00,ESE,111,11.0,15.0,-999,0.00,,,0.00,,2013-04-06 09:33:00,
2013-04-06 04:43:00,41.0,-99.9,-100.00,ESE,111,11.0,15.0,-999,0.00,,,0.00,,2013-04-06 09:43:00,
2013-04-06 04:54:00,41.0,-99.9,-100.00,ESE,111,11.0,15.0,-999,0.00,,,0.00,,2013-04-06 09:54:00,
2013-04-06 05:13:00,40.0,-99.9,-100.00,ESE,107,10.0,12.0,-999,0.00,,,0.00,,2013-04-06 10:13:00,
2013-04-06 05:23:00,40.0,-99.9,-100.00,ESE,107,10.0,12.0,-999,0.00,,,0.00,,2013-04-06 10:23:00,
2013-04-06 05:34:00,40.0,-99.9,-100.00,ESE,107,10.0,14.0,-999,0.00,,,0.00,,2013-04-06 10:34:00,
2013-04-06 05:43:00,40.0,-99.9,-100.00,ESE,107,10.0,14.0,-999,0.00,,,0.00,,2013-04-06 10:43:00,
2013-04-06 05:54:00,40.0,-99.9,-100.00,ESE,107,10.0,14.0,-999,0.00,,,0.00,,2013-04-06 10:54:00,
2013-04-06 06:03:00,40.0,-99.9,-100.00,ESE,107,10.0,15.0,-999,0.00,,,0.00,,2013-04-06 11:03:00,
2013-04-06 06:13:00,40.0,-99.9,-100.00,ESE,107,10.0,15.0,-999,0.00,,,0.00,,2013-04-06 11:13:00,
2013-04-06 06:23:00,40.0,-99.9,-100.00,ESE,107,10.0,15.0,-999,0.00,,,0.00,,2013-04-06 11:23:00,
2013-04-06 06:33:00,40.0,-99.9,-100.00,ESE,112,11.0,13.0,-999,0.00,,,0.00,,2013-04-06 11:33:00,
2013-04-06 06:43:00,40.0,-99.9,-100.00,ESE,112,11.0,13.0,-999,0.00,,,0.00,,2013-04-06 11:43:00,
2013-04-06 06:53:00,40.0,-99.9,-100.00,ESE,112,11.0,13.0,-999,0.00,,,0.00,,2013-04-06 11:53:00,
2013-04-06 07:03:00,40.0,-99.9,-100.00,ESE,117,10.0,12.0,-999,0.00,,,0.00,,2013-04-06 12:03:00,
2013-04-06 07:13:00,40.0,-99.9,-100.00,ESE,117,10.0,12.0,-999,0.00,,,0.00,,2013-04-06 12:13:00,
2013-04-06 07:22:00,40.0,-99.9,-100.00,ESE,117,10.0,12.0,-999,0.00,,,0.00,,2013-04-06 12:22:00,
2013-04-06 07:33:00,41.0,-99.9,-100.00,SE,131,8.0,11.0,-999,0.00,,,0.00,,2013-04-06 12:33:00,
2013-04-06 07:44:00,41.0,-99.9,-100.00,SE,131,8.0,11.0,-999,0.00,,,0.00,,2013-04-06 12:44:00,
2013-04-06 07:53:00,41.0,-99.9,-100.00,SE,131,8.0,11.0,-999,0.00,,,0.00,,2013-04-06 12:53:00,
2013-04-06 08:03:00,41.0,-99.9,-100.00,ESE,116,7.0,9.0,-999,0.00,,,0.00,,2013-04-06 13:03:00,
2013-04-06 08:13:00,41.0,-99.9,-100.00,ESE,116,7.0,9.0,-999,0.00,,,0.00,,2013-04-06 13:13:00,
2013-04-06 08:24:00,41.0,-99.9,-100.00,ESE,116,7.0,9.0,-999,0.00,,,0.00,,2013-04-06 13:24:00,
2013-04-06 08:33:00,44.0,-99.9,-100.00,SE,145,6.0,9.0,-999,0.00,,,0.00,,2013-04-06 13:33:00,
2013-04-06 08:44:00,44.0,-99.9,-100.00,SE,145,6.0,9.0,-999,0.00,,,0.00,,2013-04-06 13:44:00,
2013-04-06 08:54:00,44.0,-99.9,-100.00,SE,145,6.0,9.0,-999,0.00,,,0.00,,2013-04-06 13:54:00,
2013-04-06 09:05:00,47.0,-99.9,-100.00,SSE,148,14.0,24.0,-999,0.00,,,-99.99,,2013-04-06 14:05:00,
2013-04-06 09:13:00,47.0,-99.9,-100.00,SSE,148,14.0,24.0,-999,0.00,,,-99.99,,2013-04-06 14:13:00,
2013-04-06 09:23:00,47.0,-99.9,-100.00,SSE,148,14.0,24.0,-999,0.00,,,-99.99,,2013-04-06 14:23:00,
2013-04-06 09:33:00,50.0,-99.9,-100.00,SSE,154,12.0,16.0,-999,0.00,,,0.00,,2013-04-06 14:33:00,
2013-04-06 09:43:00,50.0,-99.9,-100.00,SSE,154,12.0,16.0,-999,0.00,,,0.00,,2013-04-06 14:43:00,
2013-04-06 10:02:00,51.0,-99.9,-100.00,SSE,148,11.0,15.0,-999,0.00,,,0.00,,2013-04-06 15:02:00,
2013-04-06 10:12:00,51.0,-99.9,-100.00,SSE,148,11.0,15.0,-999,0.00,,,0.00,,2013-04-06 15:12:00,
2013-04-06 10:23:00,51.0,-99.9,-100.00,SSE,148,11.0,15.0,-999,0.00,,,0.00,,2013-04-06 15:23:00,
2013-04-06 10:34:00,53.0,-99.9,-100.00,SE,144,8.0,14.0,-999,0.00,,,0.00,,2013-04-06 15:34:00,
2013-04-06 10:44:00,53.0,-99.9,-100.00,SE,144,8.0,14.0,-999,0.00,,,0.00,,2013-04-06 15:44:00,
2013-04-06 10:54:00,53.0,-99.9,-100.00,SE,144,8.0,14.0,-999,0.00,,,0.00,,2013-04-06 15:54:00,
2013-04-06 11:05:00,57.0,-99.9,-100.00,SSE,160,10.0,21.0,-999,0.00,,,0.00,,2013-04-06 16:05:00,
2013-04-06 11:18:00,57.0,-99.9,-100.00,SSE,160,10.0,21.0,-999,0.00,,,0.00,,2013-04-06 16:18:00,
2013-04-06 11:23:00,57.0,-99.9,-100.00,SSE,160,10.0,21.0,-999,0.00,,,0.00,,2013-04-06 16:23:00,
2013-04-06 11:33:00,61.0,-99.9,-100.00,SSE,162,15.0,29.0,-999,0.00,,,0.00,,2013-04-06 16:33:00,
2013-04-06 11:43:00,61.0,-99.9,-100.00,SSE,162,15.0,29.0,-999,0.00,,,0.00,,2013-04-06 16:43:00,
2013-04-06 11:53:00,61.0,-99.9,-100.00,SSE,162,15.0,29.0,-999,0.00,,,0.00,,2013-04-06 16:53:00,
2013-04-06 12:03:00,62.0,-99.9,-100.00,South,171,16.0,28.0,-999,0.00,,,0.00,,2013-04-06 17:03:00,
2013-04-06 12:13:00,62.0,-99.9,-100.00,South,171,16.0,28.0,-999,0.00,,,0.00,,2013-04-06 17:13:00,
2013-04-06 12:23:00,62.0,-99.9,-100.00,South,171,16.0,28.0,-999,0.00,,,0.00,,2013-04-06 17:23:00,
2013-04-06 12:33:00,63.0,-99.9,-100.00,SSE,164,15.0,26.0,-999,0.00,,,0.00,,2013-04-06 17:33:00,
2013-04-06 12:43:00,63.0,-99.9,-100.00,SSE,164,15.0,26.0,-999,0.00,,,0.00,,2013-04-06 17:43:00,
2013-04-06 12:53:00,63.0,-99.9,-100.00,SSE,164,15.0,26.0,-999,0.00,,,0.00,,2013-04-06 17:53:00,
2013-04-06 13:04:00,64.0,-99.9,-100.00,SSW,203,14.0,31.0,-999,0.00,,,0.00,,2013-04-06 18:04:00,
2013-04-06 13:13:00,64.0,-99.9,-100.00,SSW,203,14.0,31.0,-999,0.00,,,0.00,,2013-04-06 18:13:00,
2013-04-06 13:24:00,64.0,-99.9,-100.00,SSW,203,14.0,31.0,-999,0.00,,,0.00,,2013-04-06 18:24:00,
2013-04-06 13:33:00,59.0,-99.9,-100.00,SW,214,20.0,24.0,-999,0.00,,,0.00,,2013-04-06 18:33:00,
2013-04-06 13:43:00,59.0,-99.9,-100.00,SW,214,20.0,24.0,-999,0.00,,,0.00,,2013-04-06 18:43:00,
2013-04-06 13:52:00,59.0,-99.9,-100.00,SW,214,20.0,24.0,-999,0.00,,,0.00,,2013-04-06 18:52:00,
2013-04-06 14:03:00,64.0,-99.9,-100.00,SSW,209,22.0,33.0,-999,0.00,,,0.00,,2013-04-06 19:03:00,
2013-04-06 14:12:00,64.0,-99.9,-100.00,SSW,209,22.0,33.0,-999,0.00,,,0.00,,2013-04-06 19:12:00,
2013-04-06 14:23:00,64.0,-99.9,-100.00,SSW,209,22.0,33.0,-999,0.00,,,0.00,,2013-04-06 19:23:00,
2013-04-06 14:33:00,64.0,-99.9,-100.00,SSW,213,18.0,25.0,-999,0.00,,,0.00,,2013-04-06 19:33:00,
2013-04-06 14:43:00,64.0,-99.9,-100.00,SSW,213,18.0,25.0,-999,0.00,,,0.00,,2013-04-06 19:43:00,
2013-04-06 14:54:00,64.0,-99.9,-100.00,SSW,213,18.0,25.0,-999,0.00,,,0.00,,2013-04-06 19:54:00,
2013-04-06 15:03:00,66.0,-99.9,-100.00,SSW,212,13.0,23.0,-999,0.00,,,0.00,,2013-04-06 20:03:00,
2013-04-06 15:13:00,66.0,-99.9,-100.00,SSW,212,13.0,23.0,-999,0.00,,,0.00,,2013-04-06 20:13:00,
2013-04-06 15:23:00,66.0,-99.9,-100.00,SSW,212,13.0,23.0,-999,0.00,,,0.00,,2013-04-06 20:23:00,
2013-04-06 15:32:00,65.0,-99.9,-100.00,SSW,204,21.0,32.0,-999,0.00,,,0.00,,2013-04-06 20:32:00,
2013-04-06 15:42:00,65.0,-99.9,-100.00,SSW,204,21.0,32.0,-999,0.00,,,0.00,,2013-04-06 20:42:00,
2013-04-06 15:53:00,65.0,-99.9,-100.00,SSW,204,21.0,32.0,-999,0.00,,,0.00,,2013-04-06 20:53:00,
2013-04-06 16:03:00,65.0,-99.9,-100.00,SSW,205,14.0,22.0,-999,0.00,,,0.00,,2013-04-06 21:03:00,
2013-04-06 16:14:00,65.0,-99.9,-100.00,SSW,205,14.0,22.0,-999,0.00,,,0.00,,2013-04-06 21:14:00,
2013-04-06 16:22:00,65.0,-99.9,-100.00,SSW,205,14.0,22.0,-999,0.00,,,0.00,,2013-04-06 21:22:00,
2013-04-06 16:33:00,61.0,-99.9,-100.00,SW,217,22.0,29.0,-999,0.00,,,0.00,,2013-04-06 21:33:00,
2013-04-06 16:44:00,61.0,-99.9,-100.00,SW,217,22.0,29.0,-999,0.00,,,0.00,,2013-04-06 21:44:00,
2013-04-06 16:53:00,61.0,-99.9,-100.00,SW,217,22.0,29.0,-999,0.00,,,0.00,,2013-04-06 21:53:00,
2013-04-06 17:03:00,62.0,-99.9,-100.00,SSW,213,23.0,27.0,-999,0.00,,,0.00,,2013-04-06 22:03:00,
2013-04-06 17:14:00,62.0,-99.9,-100.00,SSW,213,23.0,27.0,-999,0.00,,,0.00,,2013-04-06 22:14:00,
2013-04-06 17:23:00,62.0,-99.9,-100.00,SSW,213,23.0,27.0,-999,0.00,,,0.00,,2013-04-06 22:23:00,
2013-04-06 17:35:00,62.0,-99.9,-100.00,SSW,207,19.0,22.0,-999,0.00,,,0.00,,2013-04-06 22:35:00,
2013-04-06 17:44:00,62.0,-99.9,-100.00,SSW,207,19.0,22.0,-999,0.00,,,0.00,,2013-04-06 22:44:00,
2013-04-06 17:55:00,62.0,-99.9,-100.00,SSW,207,19.0,22.0,-999,0.00,,,0.00,,2013-04-06 22:55:00,
2013-04-06 18:04:00,61.0,-99.9,-100.00,SW,215,15.0,20.0,-999,0.00,,,0.00,,2013-04-06 23:04:00,
2013-04-06 18:14:00,61.0,-99.9,-100.00,SW,215,15.0,20.0,-999,0.00,,,0.00,,2013-04-06 23:14:00,
2013-04-06 18:24:00,61.0,-99.9,-100.00,SW,215,15.0,20.0,-999,0.00,,,0.00,,2013-04-06 23:24:00,
2013-04-06 18:30:00,59.0,-99.9,-100.00,SSW,206,5.0,9.0,-999,0.00,,,0.00,,2013-04-06 23:30:00,
2013-04-06 18:35:00,56.0,-99.9,-100.00,SW,220,12.0,14.0,-999,0.00,,,0.00,,2013-04-06 23:35:00,
2013-04-06 18:43:00,56.0,-99.9,-100.00,SW,220,12.0,14.0,-999,0.00,,,0.00,,2013-04-06 23:43:00,
2013-04-06 18:54:00,56.0,-99.9,-100.00,SW,220,12.0,14.0,-999,0.00,,,0.00,,2013-04-06 23:54:00,
2013-04-06 19:03:00,59.0,-99.9,-100.00,SSW,206,5.0,9.0,-999,0.00,,,0.00,,2013-04-07 00:03:00,
2013-04-06 19:13:00,59.0,-99.9,-100.00,SSW,206,5.0,9.0,-999,0.00,,,0.00,,2013-04-07 00:13:00,
2013-04-06 19:23:00,59.0,-99.9,-100.00,SSW,206,5.0,9.0,-999,0.00,,,0.00,,2013-04-07 00:23:00,
2013-04-06 20:03:00,60.0,-99.9,-100.00,SW,217,13.0,16.0,-999,0.00,,,0.00,,2013-04-07 01:03:00,
2013-04-06 20:12:00,60.0,-99.9,-100.00,SW,217,13.0,16.0,-999,0.00,,,0.00,,2013-04-07 01:12:00,
2013-04-06 20:24:00,60.0,-99.9,-100.00,SW,217,13.0,16.0,-999,0.00,,,0.00,,2013-04-07 01:24:00,
2013-04-06 20:33:00,58.0,-99.9,-100.00,SW,224,8.0,12.0,-999,0.00,,,0.00,,2013-04-07 01:33:00,
2013-04-06 20:43:00,58.0,-99.9,-100.00,SW,224,8.0,12.0,-999,0.00,,,0.00,,2013-04-07 01:43:00,
2013-04-06 20:54:00,58.0,-99.9,-100.00,SW,224,8.0,12.0,-999,0.00,,,0.00,,2013-04-07 01:54:00,
2013-04-06 21:04:00,58.0,-99.9,-100.00,SW,223,6.0,10.0,-999,0.00,,,0.00,,2013-04-07 02:04:00,
2013-04-06 21:13:00,58.0,-99.9,-100.00,SW,223,6.0,10.0,-999,0.00,,,0.00,,2013-04-07 02:13:00,
2013-04-06 21:24:00,58.0,-99.9,-100.00,SW,223,6.0,10.0,-999,0.00,,,0.00,,2013-04-07 02:24:00,
2013-04-06 21:33:00,58.0,-99.9,-100.00,WSW,257,12.0,17.0,-999,0.06,,,0.06,,2013-04-07 02:33:00,
2013-04-06 21:43:00,58.0,-99.9,-100.00,WSW,257,12.0,17.0,-999,0.06,,,0.06,,2013-04-07 02:43:00,
2013-04-06 21:53:00,58.0,-99.9,-100.00,WSW,257,12.0,17.0,-999,0.06,,,0.06,,2013-04-07 02:53:00,
2013-04-06 22:03:00,59.0,-99.9,-100.00,WSW,240,10.0,14.0,-999,0.07,,,0.07,,2013-04-07 03:03:00,
2013-04-06 22:13:00,59.0,-99.9,-100.00,WSW,240,10.0,14.0,-999,0.07,,,0.07,,2013-04-07 03:13:00,
2013-04-06 22:23:00,59.0,-99.9,-100.00,WSW,240,10.0,14.0,-999,0.07,,,0.07,,2013-04-07 03:23:00,
2013-04-06 22:35:00,55.0,-99.9,-100.00,WSW,258,13.0,20.0,-999,0.01,,,0.07,,2013-04-07 03:35:00,
2013-04-06 22:44:00,55.0,-99.9,-100.00,WSW,258,13.0,20.0,-999,0.01,,,0.07,,2013-04-07 03:44:00,
2013-04-06 22:55:00,55.0,-99.9,-100.00,WSW,258,13.0,20.0,-999,0.01,,,0.07,,2013-04-07 03:55:00,
2013-04-06 23:03:00,53.0,-99.9,-100.00,West,270,17.0,25.0,-999,0.00,,,0.07,,2013-04-07 04:03:00,
2013-04-06 23:15:00,53.0,-99.9,-100.00,West,270,17.0,25.0,-999,0.00,,,0.07,,2013-04-07 04:15:00,
2013-04-06 23:23:00,53.0,-99.9,-100.00,West,270,17.0,25.0,-999,0.00,,,0.07,,2013-04-07 04:23:00,
2013-04-06 23:32:00,51.0,-99.9,-100.00,West,264,10.0,15.0,-999,0.00,,,0.07,,2013-04-07 04:32:00,
2013-04-06 23:43:00,51.0,-99.9,-100.00,West,264,10.0,15.0,-999,0.00,,,0.07,,2013-04-07 04:43:00,
2013-04-06 23:53:00,51.0,-99.9,-100.00,West,264,10.0,15.0,-999,0.00,,,0.07,,2013-04-07 04:53:00,